Weather History for Forest City, IA

Change the Weather History Date:

Sunday, May 6, 2012

  Actual Average Record
Temperature  
Mean Temperature 62 °F -  
Max Temperature 64 °F 68 °F 71 °F (2013)
Min Temperature 59 °F 42 °F 44 °F (2013)
Degree Days  
Heating Degree Days 4    
Growing Degree Days 12 (Base 50)    
Moisture  
Dew Point 56 °F    
Average Humidity 86    
Maximum Humidity 94    
Minimum Humidity 73    
Precipitation  
Precipitation 0.14 in - - ()
Sea Level Pressure  
Sea Level Pressure 29.90 in    
Wind  
Wind Speed 11 mph (ENE)    
Max Wind Speed 20 mph    
Max Gust Speed 28 mph    
Visibility 8 miles    
Events Rain    
Averages and records for this station are not official NWS values.
T = Trace of Precipitation, MM = Missing Value Source: NWS Daily Summary

Daily Weather History Graph

Daily Weather History Graph

Search for Another Location

Airport:

Trip Planner

Search our weather history database for the weather conditions in past years. The results will help you decide how hot, cold, wet, or windy it might be!

Date:

Astronomy

May. 06, 2012 Rise Set
Actual Time 6:00 AM CDT 8:22 PM CDT
Civil Twilight 5:28 AM CDT 8:54 PM CDT
Nautical Twilight 4:49 AM CDT 9:33 PM CDT
Astronomical Twilight 4:05 AM CDT 10:18 PM CDT
Moon 9:30 PM CDT (5/6) 6:10 AM CDT (5/6)
Length of Visible Light 15h 25m
Length of Day
14h 21m
Full, 100% of the Moon is Illuminated
May 6
Full
May 12
Last Quarter
May 20
New
May 28
First Quarter
Jun 4
Full

Hourly Weather History & Observations

Time (CDT) Temp. Dew Point Humidity Pressure Visibility Wind Dir Wind Speed Gust Speed Precip Events Conditions
12:15 AM 60.8 °F 55.4 °F 82% 29.85 in 7.0 mi ESE 13.8 mph 19.6 mph N/A   Mostly Cloudy
12:35 AM 60.8 °F 55.4 °F 82% 29.84 in 7.0 mi ESE 17.3 mph 20.7 mph N/A   Overcast
12:55 AM 60.8 °F 55.4 °F 82% 29.85 in 7.0 mi ESE 13.8 mph 20.7 mph N/A   Overcast
1:15 AM 60.8 °F 55.4 °F 82% 29.86 in 7.0 mi ESE 11.5 mph 18.4 mph N/A   Overcast
1:35 AM 60.8 °F 57.2 °F 88% 29.87 in 7.0 mi ESE 11.5 mph 18.4 mph N/A   Overcast
1:55 AM 60.8 °F 57.2 °F 88% 29.87 in 7.0 mi ESE 13.8 mph 17.3 mph N/A   Overcast
2:15 AM 60.8 °F 57.2 °F 88% 29.88 in 7.0 mi SE 12.7 mph 17.3 mph N/A   Overcast
2:35 AM 60.8 °F 57.2 °F 88% 29.87 in 7.0 mi SE 13.8 mph - N/A   Overcast
2:55 AM 60.8 °F 57.2 °F 88% 29.86 in 7.0 mi SE 11.5 mph - N/A   Overcast
3:15 AM 60.8 °F 57.2 °F 88% 29.86 in 5.0 mi SE 11.5 mph - N/A   Overcast
3:35 AM 60.8 °F 57.2 °F 88% 29.86 in 5.0 mi SSE 11.5 mph - N/A   Overcast
3:55 AM 60.8 °F 57.2 °F 88% 29.86 in 5.0 mi SSE 13.8 mph - N/A   Overcast
4:15 AM 60.8 °F 57.2 °F 88% 29.86 in 5.0 mi SSE 9.2 mph - N/A   Overcast
4:35 AM 60.8 °F 59.0 °F 94% 29.86 in 4.0 mi SSE 9.2 mph - N/A   Overcast
4:55 AM 60.8 °F 59.0 °F 94% 29.91 in 3.0 mi NNW 12.7 mph 19.6 mph 0.04 in Rain Light Rain
5:15 AM 59.0 °F 57.2 °F 94% 29.91 in 7.0 mi North 19.6 mph 27.6 mph N/A   Light Drizzle
5:35 AM 59.0 °F 55.4 °F 88% 29.87 in 10.0 mi NNE 15.0 mph 24.2 mph N/A   Mostly Cloudy
5:55 AM 59.0 °F 55.4 °F 88% 29.88 in 10.0 mi NNE 12.7 mph 18.4 mph N/A   Scattered Clouds
6:15 AM 59.0 °F 55.4 °F 88% 29.90 in 10.0 mi NE 11.5 mph - N/A   Scattered Clouds
6:35 AM 59.0 °F 53.6 °F 82% 29.89 in 10.0 mi NNE 13.8 mph 20.7 mph N/A   Mostly Cloudy
6:55 AM 59.0 °F 55.4 °F 88% 29.89 in 10.0 mi NE 9.2 mph - N/A   Mostly Cloudy
7:15 AM 59.0 °F 55.4 °F 88% 29.89 in 10.0 mi ENE 6.9 mph - N/A   Mostly Cloudy
7:35 AM 59.0 °F 55.4 °F 88% 29.89 in 10.0 mi East 4.6 mph - N/A   Mostly Cloudy
7:55 AM 59.0 °F 55.4 °F 88% 29.89 in 10.0 mi East 12.7 mph 18.4 mph N/A   Overcast
8:15 AM 59.0 °F 55.4 °F 88% 29.90 in 10.0 mi Calm Calm - N/A   Overcast
8:35 AM 59.0 °F 55.4 °F 88% 29.91 in 7.0 mi East 5.8 mph - N/A   Mostly Cloudy
8:55 AM 59.0 °F 55.4 °F 88% 29.93 in 10.0 mi South 5.8 mph - N/A Rain Light Rain
9:15 AM 59.0 °F 55.4 °F 88% 29.95 in 7.0 mi SW 8.1 mph - N/A Rain Light Rain
9:35 AM 59.0 °F 55.4 °F 88% 29.94 in 7.0 mi SSW 8.1 mph - 0.02 in Rain Light Rain
9:55 AM 59.0 °F 57.2 °F 94% 29.92 in 10.0 mi South 11.5 mph 16.1 mph 0.03 in Rain Light Rain
10:15 AM 60.8 °F 57.2 °F 88% 29.89 in 10.0 mi SSE 10.4 mph - N/A Rain Light Rain
10:35 AM 60.8 °F 57.2 °F 88% 29.84 in 10.0 mi ESE 5.8 mph 17.3 mph N/A   Light Drizzle
10:55 AM 60.8 °F 59.0 °F 94% 29.84 in 10.0 mi SE 6.9 mph - N/A   Mostly Cloudy
11:15 AM 62.6 °F 59.0 °F 88% 29.86 in 10.0 mi Calm Calm - N/A   Mostly Cloudy
11:35 AM 64.4 °F 60.8 °F 88% 29.89 in 10.0 mi NNW 12.7 mph 20.7 mph N/A   Scattered Clouds
11:55 AM 64.4 °F 59.0 °F 83% 29.89 in 10.0 mi North 15.0 mph 25.3 mph N/A   Mostly Cloudy
12:15 PM 64.4 °F 59.0 °F 83% 29.88 in 10.0 mi North 17.3 mph - N/A   Overcast
12:35 PM 64.4 °F 59.0 °F 83% 29.89 in 10.0 mi North 12.7 mph - N/A   Mostly Cloudy
12:55 PM 64.4 °F 59.0 °F 83% 29.90 in 10.0 mi North 11.5 mph - N/A   Overcast
1:55 PM 64.4 °F 57.2 °F 77% 29.92 in 10.0 mi NNW 11.5 mph - N/A   Overcast
2:55 PM 64.4 °F 55.4 °F 73% 29.93 in 10.0 mi NW 12.7 mph 19.6 mph N/A   Overcast
3:55 PM 62.6 °F 55.4 °F 77% 29.95 in 10.0 mi North 11.5 mph - N/A   Overcast
7:15 PM 60.8 °F 53.6 °F 77% 29.97 in 10.0 mi NNE 8.1 mph - N/A   Overcast
7:35 PM 60.8 °F 53.6 °F 77% 29.97 in 10.0 mi North 4.6 mph - N/A   Overcast
8:35 PM 59.0 °F 53.6 °F 82% 29.94 in 10.0 mi NNE 3.5 mph - N/A   Mostly Cloudy
8:55 PM 59.0 °F 53.6 °F 82% 29.96 in 10.0 mi Calm Calm - N/A   Mostly Cloudy
9:15 PM 59.0 °F 53.6 °F 82% 29.97 in 10.0 mi Calm Calm - N/A   Overcast
9:35 PM 59.0 °F 55.4 °F 88% 29.98 in 10.0 mi Calm Calm - N/A   Overcast
10:15 PM 59.0 °F 55.4 °F 88% 29.99 in 10.0 mi NE 3.5 mph - 0.02 in Rain Rain
10:35 PM 59.0 °F 55.4 °F 88% 29.97 in 7.0 mi NE 6.9 mph - 0.06 in Rain Rain
10:55 PM 59.0 °F 55.4 °F 88% 29.99 in 10.0 mi NW 3.5 mph - 0.07 in   Light Drizzle
11:15 PM 59.0 °F 55.4 °F 88% 29.98 in 10.0 mi NNW 3.5 mph - N/A   Overcast
11:35 PM 59.0 °F 55.4 °F 88% 29.98 in 5.0 mi NW 8.1 mph - N/A   Overcast
11:55 PM 59.0 °F 55.4 °F 88% 29.97 in 4.0 mi NNW 12.7 mph 18.4 mph N/A Rain Rain